| time (UTC) | temp F | wind direction | speed knots | gust knots | rain 1hr in | rain 24hr in | rain mn in | humidity % | barometer mb |
| 20260506224358 | 67 | 181 | 3.5 | 6.1 | 0.00 | 0.00 | 0.00 | 67 | 1016.0 |
| 20260506223859 | 67 | 174 | 1.7 | 3.5 | 0.00 | 0.00 | 0.00 | 68 | 1016.0 |
| 20260506223358 | 66 | 181 | 2.6 | 4.3 | 0.00 | 0.00 | 0.00 | 69 | 1016.0 |
| 20260506222858 | 66 | 197 | 3.5 | 6.1 | 0.00 | 0.00 | 0.00 | 69 | 1016.0 |
| 20260506222358 | 67 | 171 | 3.5 | 4.3 | 0.00 | 0.00 | 0.00 | 70 | 1016.0 |
| 20260506221858 | 67 | 162 | 3.5 | 4.3 | 0.00 | 0.00 | 0.00 | 70 | 1016.0 |
| 20260506221358 | 67 | 193 | 3.5 | 4.3 | 0.00 | 0.00 | 0.00 | 70 | 1016.0 |
| 20260506220900 | 68 | 201 | 2.6 | 4.3 | 0.00 | 0.00 | 0.00 | 67 | 1016.0 |
| 20260506220359 | 67 | 204 | 2.6 | 4.3 | 0.00 | 0.00 | 0.00 | 67 | 1016.0 |
| 20260506215859 | 67 | 197 | 3.5 | 4.3 | 0.00 | 0.00 | 0.00 | 68 | 1017.0 |
| 20260506215358 | 67 | 190 | 1.7 | 2.6 | 0.00 | 0.00 | 0.00 | 68 | 1017.0 |
| 20260506214859 | 67 | 167 | 3.5 | 4.3 | 0.00 | 0.00 | 0.00 | 70 | 1017.0 |
| 20260506214400 | 67 | 177 | 3.5 | 4.3 | 0.00 | 0.00 | 0.00 | 70 | 1017.0 |
| 20260506213858 | 67 | 203 | 2.6 | 3.5 | 0.00 | 0.00 | 0.00 | 69 | 1017.0 |
| 20260506213358 | 67 | 167 | 3.5 | 5.2 | 0.00 | 0.00 | 0.00 | 68 | 1017.0 |
| 20260506212859 | 67 | 184 | 3.5 | 5.2 | 0.00 | 0.00 | 0.00 | 68 | 1017.0 |
| 20260506211934 | 67 | 183 | 1.7 | 3.5 | 0.00 | 0.00 | 0.00 | 66 | 1017.0 |
| 20260506211358 | 67 | 158 | 3.5 | 4.3 | 0.00 | 0.00 | 0.00 | 67 | 1017.0 |
| 20260506210858 | 67 | 184 | 3.5 | 5.2 | 0.00 | 0.00 | 0.00 | 67 | 1017.0 |
| 20260506210358 | 68 | 185 | 3.5 | 4.3 | 0.00 | 0.00 | 0.00 | 65 | 1017.0 |
| 20260506205859 | 67 | 155 | 2.6 | 3.5 | 0.00 | 0.00 | 0.00 | 66 | 1017.0 |
| 20260506205359 | 67 | 162 | 2.6 | 4.3 | 0.00 | 0.00 | 0.00 | 66 | 1017.0 |
| 20260506204858 | 66 | 176 | 3.5 | 3.5 | 0.00 | 0.00 | 0.00 | 69 | 1017.0 |
| 20260506204400 | 65 | 181 | 3.5 | 4.3 | 0.00 | 0.00 | 0.00 | 69 | 1017.0 |
| 20260506203859 | 65 | 137 | 3.5 | 5.2 | 0.00 | 0.00 | 0.00 | 68 | 1017.0 |
| 20260506203400 | 65 | 177 | 2.6 | 4.3 | 0.00 | 0.00 | 0.00 | 69 | 1017.0 |
| 20260506202900 | 65 | 182 | 3.5 | 3.5 | 0.00 | 0.00 | 0.00 | 68 | 1017.0 |
| 20260506202400 | 65 | 187 | 2.6 | 5.2 | 0.00 | 0.00 | 0.00 | 71 | 1017.0 |
| 20260506201859 | 65 | 160 | 3.5 | 5.2 | 0.00 | 0.00 | 0.00 | 70 | 1017.0 |
| 20260506201359 | 65 | 198 | 3.5 | 4.3 | 0.00 | 0.00 | 0.00 | 71 | 1017.0 |
| 20260506200901 | 66 | 188 | 3.5 | 5.2 | 0.00 | 0.00 | 0.00 | 69 | 1017.0 |
| 20260506200400 | 66 | 168 | 2.6 | 4.3 | 0.00 | 0.00 | 0.00 | 69 | 1017.0 |
| 20260506195858 | 67 | 181 | 3.5 | 5.2 | 0.00 | 0.00 | 0.00 | 67 | 1017.0 |
| 20260506195359 | 67 | 139 | 3.5 | 7.0 | 0.00 | 0.00 | 0.00 | 65 | 1017.0 |
| 20260506194858 | 67 | 167 | 2.6 | 3.5 | 0.00 | 0.00 | 0.00 | 67 | 1017.0 |
| 20260506194358 | 66 | 173 | 2.6 | 4.3 | 0.00 | 0.00 | 0.00 | 69 | 1017.0 |
| 20260506193858 | 66 | 168 | 4.3 | 5.2 | 0.00 | 0.00 | 0.00 | 68 | 1017.0 |
| 20260506193407 | 66 | 175 | 3.5 | 4.3 | 0.00 | 0.00 | 0.00 | 66 | 1017.0 |
| 20260506192858 | 65 | 150 | 2.6 | 4.3 | 0.00 | 0.00 | 0.00 | 69 | 1017.0 |
| 20260506192358 | 65 | 176 | 2.6 | 3.5 | 0.00 | 0.00 | 0.00 | 70 | 1018.0 |
| 20260506191900 | 64 | 158 | 2.6 | 4.3 | 0.00 | 0.00 | 0.00 | 70 | 1018.0 |
| 20260506191359 | 64 | 183 | 3.5 | 4.3 | 0.00 | 0.00 | 0.00 | 72 | 1018.0 |
| 20260506190858 | 65 | 173 | 2.6 | 4.3 | 0.00 | 0.00 | 0.00 | 69 | 1018.0 |
| 20260506190359 | 65 | 160 | 1.7 | 3.5 | 0.00 | 0.00 | 0.00 | 71 | 1018.0 |
| 20260506185858 | 65 | 183 | 4.3 | 5.2 | 0.00 | 0.00 | 0.00 | 70 | 1018.0 |
| 20260506185358 | 65 | 162 | 2.6 | 3.5 | 0.00 | 0.00 | 0.00 | 69 | 1018.0 |
| 20260506184859 | 64 | 186 | 3.5 | 5.2 | 0.00 | 0.00 | 0.00 | 71 | 1018.0 |
| 20260506184358 | 64 | 183 | 3.5 | 4.3 | 0.00 | 0.00 | 0.00 | 71 | 1018.0 |
| 20260506183901 | 65 | 183 | 3.5 | 5.2 | 0.00 | 0.00 | 0.00 | 71 | 1018.0 |
| 20260506183358 | 65 | 177 | 2.6 | 5.2 | 0.00 | 0.00 | 0.00 | 70 | 1018.0 |
| 20260506182859 | 65 | 157 | 4.3 | 7.0 | 0.00 | 0.00 | 0.00 | 69 | 1018.0 |
| 20260506182358 | 65 | 178 | 3.5 | 5.2 | 0.00 | 0.00 | 0.00 | 69 | 1018.0 |
| 20260506181858 | 65 | 185 | 2.6 | 3.5 | 0.00 | 0.00 | 0.00 | 71 | 1018.0 |
| 20260506181359 | 65 | 151 | 2.6 | 7.0 | 0.00 | 0.00 | 0.00 | 68 | 1018.0 |
| 20260506180858 | 65 | 139 | 2.6 | 10.4 | 0.00 | 0.00 | 0.00 | 69 | 1018.0 |
| 20260506180358 | 64 | 176 | 3.5 | 4.3 | 0.00 | 0.00 | 0.00 | 71 | 1018.0 |
| 20260506175858 | 64 | 174 | 2.6 | 3.5 | 0.00 | 0.00 | 0.00 | 74 | 1018.0 |
| 20260506175358 | 64 | 182 | 1.7 | 3.5 | 0.00 | 0.00 | 0.00 | 74 | 1018.0 |
| 20260506174900 | 63 | 170 | 2.6 | 3.5 | 0.00 | 0.00 | 0.00 | 76 | 1018.0 |
| 20260506174358 | 63 | 166 | 2.6 | 3.5 | 0.00 | 0.00 | 0.00 | 76 | 1018.0 |
| 20260506173858 | 63 | 172 | 2.6 | 3.5 | 0.00 | 0.00 | 0.00 | 75 | 1018.0 |
| 20260506173359 | 63 | 169 | 2.6 | 3.5 | 0.00 | 0.00 | 0.00 | 77 | 1018.0 |
| 20260506172859 | 63 | 169 | 1.7 | 3.5 | 0.00 | 0.00 | 0.00 | 77 | 1018.0 |
| 20260506172358 | 62 | 174 | 1.7 | 3.5 | 0.00 | 0.00 | 0.00 | 78 | 1018.0 |
| 20260506171858 | 62 | 175 | 1.7 | 3.5 | 0.00 | 0.00 | 0.00 | 79 | 1018.0 |
| 20260506171358 | 62 | 169 | 3.5 | 5.2 | 0.00 | 0.00 | 0.00 | 79 | 1018.0 |
| 20260506170858 | 62 | 165 | 3.5 | 4.3 | 0.00 | 0.00 | 0.00 | 79 | 1018.0 |
| 20260506170359 | 62 | 174 | 3.5 | 4.3 | 0.00 | 0.00 | 0.00 | 79 | 1018.0 |
| 20260506165858 | 62 | 175 | 2.6 | 4.3 | 0.00 | 0.00 | 0.00 | 78 | 1018.0 |
| 20260506165358 | 62 | 164 | 2.6 | 2.6 | 0.00 | 0.00 | 0.00 | 78 | 1018.0 |
| 20260506164858 | 62 | 156 | 3.5 | 3.5 | 0.00 | 0.00 | 0.00 | 78 | 1018.0 |
| 20260506164359 | 62 | 163 | 2.6 | 3.5 | 0.00 | 0.00 | 0.00 | 78 | 1018.0 |
| 20260506163859 | 62 | 161 | 2.6 | 3.5 | 0.00 | 0.00 | 0.00 | 78 | 1018.0 |
| 20260506163359 | 62 | 167 | 2.6 | 4.3 | 0.00 | 0.00 | 0.00 | 79 | 1018.0 |
| 20260506162859 | 62 | 155 | 2.6 | 2.6 | 0.00 | 0.00 | 0.00 | 79 | 1018.0 |
| 20260506162358 | 61 | 164 | 3.5 | 4.3 | 0.00 | 0.00 | 0.00 | 79 | 1018.0 |
| 20260506161858 | 61 | 160 | 2.6 | 2.6 | 0.00 | 0.00 | 0.00 | 80 | 1018.0 |
| 20260506161359 | 61 | 159 | 1.7 | 2.6 | 0.00 | 0.00 | 0.00 | 81 | 1018.0 |
| 20260506160859 | 60 | 159 | 2.6 | 3.5 | 0.00 | 0.00 | 0.00 | 83 | 1018.0 |
| 20260506160359 | 60 | 163 | 1.7 | 2.6 | 0.00 | 0.00 | 0.00 | 82 | 1018.0 |
| 20260506155900 | 60 | 165 | 2.6 | 3.5 | 0.00 | 0.00 | 0.00 | 83 | 1018.0 |
| 20260506155359 | 59 | 150 | 1.7 | 2.6 | 0.00 | 0.00 | 0.00 | 85 | 1018.0 |
| 20260506154858 | 59 | 162 | 3.5 | 3.5 | 0.00 | 0.00 | 0.00 | 84 | 1018.0 |
| 20260506154359 | 59 | 155 | 3.5 | 5.2 | 0.00 | 0.00 | 0.00 | 84 | 1018.0 |
| 20260506153859 | 59 | 158 | 3.5 | 4.3 | 0.00 | 0.00 | 0.00 | 85 | 1018.0 |
| 20260506153358 | 59 | 158 | 3.5 | 3.5 | 0.00 | 0.00 | 0.00 | 85 | 1018.0 |
| 20260506152858 | 59 | 160 | 3.5 | 4.3 | 0.00 | 0.00 | 0.00 | 86 | 1018.0 |
| 20260506152358 | 58 | 162 | 0.9 | 4.3 | 0.00 | 0.00 | 0.00 | 85 | 1018.0 |
| 20260506151858 | 58 | 0 | 0.0 | 0.0 | 0.00 | 0.00 | 0.00 | 86 | 1018.0 |
| 20260506151358 | 57 | 329 | 0.9 | 0.9 | 0.00 | 0.00 | 0.00 | 87 | 1018.0 |
| 20260506150858 | 56 | 326 | 0.9 | 0.9 | 0.00 | 0.00 | 0.00 | 89 | 1018.0 |
| 20260506150358 | 56 | 326 | 0.9 | 0.9 | 0.00 | 0.00 | 0.00 | 89 | 1018.0 |
| 20260506145900 | 55 | 323 | 0.9 | 0.9 | 0.00 | 0.00 | 0.00 | 90 | 1018.0 |
| 20260506145358 | 55 | 325 | 0.9 | 0.9 | 0.00 | 0.00 | 0.00 | 91 | 1018.0 |
| 20260506144859 | 54 | 320 | 0.9 | 0.9 | 0.00 | 0.00 | 0.00 | 92 | 1018.0 |
| 20260506144359 | 54 | 316 | 0.9 | 0.9 | 0.00 | 0.00 | 0.00 | 92 | 1018.0 |
| 20260506143858 | 53 | 0 | 0.0 | 0.0 | 0.00 | 0.00 | 0.00 | 92 | 1018.0 |
| 20260506143359 | 53 | 0 | 0.0 | 0.0 | 0.00 | 0.00 | 0.00 | 92 | 1018.0 |
| 20260506142858 | 52 | 0 | 0.0 | 0.0 | 0.00 | 0.00 | 0.00 | 92 | 1018.0 |
| 20260506142359 | 52 | 0 | 0.0 | 0.0 | 0.00 | 0.00 | 0.00 | 93 | 1018.0 |
| 20260506141900 | 51 | 0 | 0.0 | 0.0 | 0.00 | 0.00 | 0.00 | 92 | 1018.0 |
| 20260506141403 | 51 | 0 | 0.0 | 0.0 | 0.00 | 0.00 | 0.00 | 93 | 1018.0 |
| 20260506140858 | 51 | 0 | 0.0 | 0.0 | 0.00 | 0.00 | 0.00 | 93 | 1018.0 |
| 20260506140358 | 51 | 0 | 0.0 | 0.0 | 0.00 | 0.00 | 0.00 | 93 | 1018.0 |
| 20260506135859 | 50 | 0 | 0.0 | 0.0 | 0.00 | 0.00 | 0.00 | 93 | 1018.0 |
| 20260506135359 | 50 | 0 | 0.0 | 0.0 | 0.00 | 0.00 | 0.00 | 93 | 1018.0 |
| 20260506134859 | 50 | 0 | 0.0 | 0.0 | 0.00 | 0.00 | 0.00 | 93 | 1018.0 |
| 20260506134358 | 50 | 0 | 0.0 | 0.0 | 0.00 | 0.00 | 0.00 | 93 | 1018.0 |
| 20260506133859 | 50 | 0 | 0.0 | 0.0 | 0.00 | 0.00 | 0.00 | 93 | 1017.0 |
| 20260506133403 | 50 | 0 | 0.0 | 0.0 | 0.00 | 0.00 | 0.00 | 93 | 1017.0 |
| 20260506132858 | 50 | 0 | 0.0 | 0.0 | 0.00 | 0.00 | 0.00 | 93 | 1017.0 |
| 20260506132400 | 50 | 0 | 0.0 | 0.0 | 0.00 | 0.00 | 0.00 | 93 | 1017.0 |
| 20260506131859 | 50 | 0 | 0.0 | 0.0 | 0.00 | 0.00 | 0.00 | 93 | 1017.0 |
| 20260506131359 | 50 | 0 | 0.0 | 0.0 | 0.00 | 0.00 | 0.00 | 93 | 1017.0 |
| 20260506130859 | 50 | 0 | 0.0 | 0.0 | 0.00 | 0.00 | 0.00 | 92 | 1017.0 |
| 20260506130358 | 50 | 0 | 0.0 | 0.0 | 0.00 | 0.00 | 0.00 | 92 | 1017.0 |
| 20260506125859 | 50 | 0 | 0.0 | 0.0 | 0.00 | 0.00 | 0.00 | 92 | 1017.0 |
| 20260506125358 | 50 | 0 | 0.0 | 0.0 | 0.00 | 0.00 | 0.00 | 92 | 1017.0 |
| 20260506124858 | 50 | 0 | 0.0 | 0.0 | 0.00 | 0.00 | 0.00 | 92 | 1017.0 |
| 20260506124359 | 50 | 0 | 0.0 | 0.0 | 0.00 | 0.00 | 0.00 | 92 | 1017.0 |
| 20260506123858 | 50 | 0 | 0.0 | 0.0 | 0.00 | 0.00 | 0.00 | 92 | 1017.0 |
| 20260506123359 | 50 | 0 | 0.0 | 0.0 | 0.00 | 0.00 | 0.00 | 92 | 1017.0 |
| 20260506122858 | 51 | 0 | 0.0 | 0.0 | 0.00 | 0.00 | 0.00 | 92 | 1017.0 |
| 20260506122358 | 50 | 0 | 0.0 | 0.0 | 0.00 | 0.00 | 0.00 | 93 | 1017.0 |
| 20260506121859 | 50 | 0 | 0.0 | 0.0 | 0.00 | 0.00 | 0.00 | 93 | 1017.0 |
| 20260506121358 | 50 | 0 | 0.0 | 0.0 | 0.00 | 0.00 | 0.00 | 93 | 1017.0 |
| 20260506120859 | 50 | 0 | 0.0 | 0.0 | 0.00 | 0.00 | 0.00 | 92 | 1017.0 |
| 20260506120358 | 50 | 0 | 0.0 | 0.0 | 0.00 | 0.00 | 0.00 | 92 | 1017.0 |
| 20260506115858 | 50 | 0 | 0.0 | 0.0 | 0.00 | 0.00 | 0.00 | 92 | 1017.0 |
| 20260506115359 | 50 | 0 | 0.0 | 0.0 | 0.00 | 0.00 | 0.00 | 92 | 1017.0 |
| 20260506114859 | 50 | 0 | 0.0 | 0.0 | 0.00 | 0.00 | 0.00 | 92 | 1017.0 |
| 20260506114359 | 50 | 0 | 0.0 | 0.0 | 0.00 | 0.00 | 0.00 | 92 | 1017.0 |
| 20260506113858 | 50 | 0 | 0.0 | 0.0 | 0.00 | 0.00 | 0.00 | 92 | 1017.0 |
| 20260506113401 | 50 | 0 | 0.0 | 0.0 | 0.00 | 0.00 | 0.00 | 92 | 1017.0 |
| 20260506112859 | 50 | 0 | 0.0 | 0.0 | 0.00 | 0.00 | 0.00 | 92 | 1017.0 |
| 20260506112359 | 50 | 0 | 0.0 | 0.0 | 0.00 | 0.00 | 0.00 | 92 | 1017.0 |
| 20260506111900 | 50 | 0 | 0.0 | 0.0 | 0.00 | 0.00 | 0.00 | 92 | 1017.0 |
| 20260506111359 | 50 | 0 | 0.0 | 0.0 | 0.00 | 0.00 | 0.00 | 92 | 1017.0 |
| 20260506110858 | 50 | 0 | 0.0 | 0.0 | 0.00 | 0.00 | 0.00 | 92 | 1017.0 |
| 20260506110358 | 50 | 0 | 0.0 | 0.0 | 0.00 | 0.00 | 0.00 | 92 | 1017.0 |
| 20260506105858 | 50 | 0 | 0.0 | 0.0 | 0.00 | 0.00 | 0.00 | 92 | 1017.0 |
| 20260506105358 | 50 | 0 | 0.0 | 0.0 | 0.00 | 0.00 | 0.00 | 92 | 1017.0 |
| 20260506104901 | 51 | 0 | 0.0 | 0.0 | 0.00 | 0.00 | 0.00 | 92 | 1017.0 |
| 20260506104358 | 51 | 0 | 0.0 | 0.0 | 0.00 | 0.00 | 0.00 | 92 | 1017.0 |
| 20260506103900 | 51 | 0 | 0.0 | 0.0 | 0.00 | 0.00 | 0.00 | 92 | 1017.0 |
| 20260506103358 | 51 | 0 | 0.0 | 0.0 | 0.00 | 0.00 | 0.00 | 92 | 1017.0 |
| 20260506102900 | 51 | 0 | 0.0 | 0.0 | 0.00 | 0.00 | 0.00 | 92 | 1017.0 |
| 20260506102407 | 51 | 0 | 0.0 | 0.0 | 0.00 | 0.00 | 0.00 | 92 | 1017.0 |
| 20260506101858 | 50 | 0 | 0.0 | 0.0 | 0.00 | 0.00 | 0.00 | 92 | 1017.0 |
| 20260506101359 | 50 | 0 | 0.0 | 0.0 | 0.00 | 0.00 | 0.00 | 92 | 1017.0 |
| 20260506100859 | 51 | 0 | 0.0 | 0.0 | 0.00 | 0.00 | 0.00 | 92 | 1017.0 |
| 20260506100400 | 51 | 0 | 0.0 | 0.0 | 0.00 | 0.00 | 0.00 | 92 | 1017.0 |
| 20260506095859 | 51 | 0 | 0.0 | 0.0 | 0.00 | 0.00 | 0.00 | 92 | 1017.0 |
| 20260506095359 | 51 | 0 | 0.0 | 0.0 | 0.00 | 0.00 | 0.00 | 92 | 1017.0 |
| 20260506094858 | 51 | 0 | 0.0 | 0.0 | 0.00 | 0.00 | 0.00 | 92 | 1017.0 |
| 20260506094358 | 51 | 0 | 0.0 | 0.0 | 0.00 | 0.00 | 0.00 | 92 | 1017.0 |
| 20260506093859 | 51 | 0 | 0.0 | 0.0 | 0.00 | 0.00 | 0.00 | 92 | 1017.0 |
| 20260506093358 | 51 | 327 | 0.9 | 0.9 | 0.00 | 0.00 | 0.00 | 92 | 1017.0 |
| 20260506092858 | 51 | 0 | 0.0 | 0.0 | 0.00 | 0.00 | 0.00 | 92 | 1017.0 |
| 20260506092358 | 51 | 0 | 0.0 | 0.0 | 0.00 | 0.00 | 0.00 | 92 | 1017.0 |
| 20260506091410 | 51 | 0 | 0.0 | 0.0 | 0.00 | 0.00 | 0.00 | 92 | 1017.0 |
| 20260506090859 | 51 | 0 | 0.0 | 0.0 | 0.00 | 0.00 | 0.00 | 92 | 1017.0 |
| 20260506090400 | 51 | 0 | 0.0 | 0.0 | 0.00 | 0.00 | 0.00 | 92 | 1017.0 |
| 20260506085858 | 51 | 0 | 0.0 | 0.0 | 0.00 | 0.00 | 0.00 | 92 | 1017.0 |
| 20260506085358 | 52 | 0 | 0.0 | 0.0 | 0.00 | 0.00 | 0.00 | 92 | 1017.0 |
| 20260506084858 | 52 | 0 | 0.0 | 0.0 | 0.00 | 0.00 | 0.00 | 92 | 1017.0 |
| 20260506084358 | 52 | 0 | 0.0 | 0.0 | 0.00 | 0.00 | 0.00 | 92 | 1017.0 |
| 20260506083859 | 52 | 0 | 0.0 | 0.0 | 0.00 | 0.00 | 0.00 | 92 | 1017.0 |
| 20260506083358 | 52 | 0 | 0.0 | 0.0 | 0.00 | 0.00 | 0.00 | 92 | 1017.0 |
| 20260506082859 | 52 | 0 | 0.0 | 0.0 | 0.00 | 0.00 | 0.00 | 92 | 1017.0 |
| 20260506082359 | 52 | 0 | 0.0 | 0.0 | 0.00 | 0.00 | 0.00 | 92 | 1017.0 |
| 20260506081902 | 52 | 0 | 0.0 | 0.0 | 0.00 | 0.00 | 0.00 | 92 | 1017.0 |
| 20260506081358 | 52 | 0 | 0.0 | 0.0 | 0.00 | 0.00 | 0.00 | 92 | 1017.0 |
| 20260506080859 | 52 | 0 | 0.0 | 0.0 | 0.00 | 0.00 | 0.00 | 92 | 1017.0 |
| 20260506080358 | 53 | 0 | 0.0 | 0.0 | 0.00 | 0.00 | 0.00 | 92 | 1017.0 |
| 20260506073359 | 53 | 0 | 0.0 | 0.0 | 0.00 | 0.00 | 0.00 | 92 | 1017.0 |
| 20260506072900 | 53 | 0 | 0.0 | 0.0 | 0.00 | 0.00 | 0.00 | 92 | 1017.0 |
| 20260506072358 | 53 | 0 | 0.0 | 0.0 | 0.00 | 0.00 | 0.00 | 92 | 1017.0 |
| 20260506071858 | 53 | 0 | 0.0 | 0.0 | 0.00 | 0.00 | 0.00 | 92 | 1017.0 |
| 20260506071358 | 53 | 0 | 0.0 | 0.0 | 0.00 | 0.00 | 0.00 | 92 | 1017.0 |
| 20260506070858 | 53 | 0 | 0.0 | 0.0 | 0.00 | 0.00 | 0.00 | 92 | 1017.0 |
| 20260506070358 | 53 | 0 | 0.0 | 0.0 | 0.00 | 0.00 | 0.00 | 92 | 1016.0 |
| 20260506062359 | 54 | 0 | 0.0 | 0.0 | 0.00 | 0.00 | 0.00 | 91 | 1016.0 |
| 20260506061858 | 54 | 0 | 0.0 | 0.0 | 0.00 | 0.00 | 0.00 | 91 | 1016.0 |
| 20260506061359 | 54 | 0 | 0.0 | 0.0 | 0.00 | 0.00 | 0.00 | 90 | 1016.0 |
| 20260506060858 | 54 | 0 | 0.0 | 0.0 | 0.00 | 0.00 | 0.00 | 90 | 1016.0 |
| 20260506060358 | 54 | 0 | 0.0 | 0.0 | 0.00 | 0.00 | 0.00 | 90 | 1016.0 |
| 20260506051359 | 56 | 0 | 0.0 | 0.0 | 0.00 | 0.00 | 0.00 | 87 | 1016.0 |
| 20260506050858 | 56 | 326 | 0.9 | 1.7 | 0.00 | 0.00 | 0.00 | 87 | 1015.0 |
| 20260506050358 | 57 | 0 | 0.0 | 0.0 | 0.00 | 0.00 | 0.00 | 86 | 1015.0 |
| 20260506044858 | 58 | 0 | 0.0 | 0.0 | 0.00 | 0.00 | 0.00 | 82 | 1015.0 |
| 20260506044358 | 58 | 303 | 0.9 | 2.6 | 0.00 | 0.00 | 0.00 | 80 | 1015.0 |
| 20260506043858 | 58 | 332 | 0.9 | 0.9 | 0.00 | 0.00 | 0.00 | 79 | 1015.0 |
| 20260506043358 | 57 | 275 | 2.6 | 6.1 | 0.00 | 0.00 | 0.00 | 82 | 1015.0 |
| 20260506042859 | 57 | 0 | 0.0 | 0.0 | 0.00 | 0.00 | 0.00 | 82 | 1015.0 |
| 20260506042359 | 57 | 0 | 0.0 | 0.0 | 0.00 | 0.00 | 0.00 | 83 | 1015.0 |
| 20260506041905 | 57 | 0 | 0.0 | 0.0 | 0.00 | 0.00 | 0.00 | 83 | 1015.0 |
| 20260506041358 | 57 | 0 | 0.0 | 0.0 | 0.00 | 0.00 | 0.00 | 83 | 1015.0 |
| 20260506040858 | 57 | 0 | 0.0 | 0.0 | 0.00 | 0.00 | 0.00 | 84 | 1015.0 |
| 20260506040359 | 58 | 0 | 0.0 | 0.0 | 0.00 | 0.00 | 0.00 | 83 | 1015.0 |
| 20260506035858 | 58 | 32 | 0.0 | 0.9 | 0.00 | 0.00 | 0.00 | 84 | 1015.0 |
| 20260506035358 | 58 | 285 | 0.9 | 2.6 | 0.00 | 0.00 | 0.00 | 83 | 1014.0 |
| 20260506034859 | 58 | 0 | 0.0 | 0.0 | 0.00 | 0.00 | 0.00 | 83 | 1014.0 |
| 20260506034358 | 58 | 73 | 0.0 | 0.0 | 0.00 | 0.00 | 0.00 | 83 | 1014.0 |
| 20260506033859 | 58 | 336 | 0.0 | 0.9 | 0.00 | 0.00 | 0.00 | 84 | 1014.0 |
| 20260506033358 | 58 | 0 | 0.0 | 0.0 | 0.00 | 0.00 | 0.00 | 84 | 1014.0 |
| 20260506032858 | 58 | 0 | 0.0 | 0.0 | 0.00 | 0.00 | 0.00 | 84 | 1014.0 |
| 20260506032359 | 58 | 0 | 0.0 | 0.0 | 0.00 | 0.00 | 0.00 | 84 | 1014.0 |
| 20260506031858 | 58 | 336 | 0.9 | 1.7 | 0.00 | 0.00 | 0.00 | 85 | 1014.0 |
| 20260506031358 | 58 | 337 | 0.0 | 1.7 | 0.00 | 0.00 | 0.00 | 85 | 1014.0 |
| 20260506030859 | 59 | 0 | 0.0 | 0.0 | 0.00 | 0.00 | 0.00 | 84 | 1014.0 |
| 20260506030359 | 59 | 322 | 0.0 | 0.9 | 0.00 | 0.00 | 0.00 | 83 | 1014.0 |
| 20260506025858 | 59 | 0 | 0.0 | 0.0 | 0.00 | 0.00 | 0.00 | 83 | 1014.0 |
| 20260506025358 | 60 | 0 | 0.0 | 0.0 | 0.00 | 0.00 | 0.00 | 82 | 1013.0 |
| 20260506024858 | 60 | 342 | 0.0 | 1.7 | 0.00 | 0.00 | 0.00 | 82 | 1013.0 |
| 20260506024358 | 60 | 0 | 0.0 | 0.0 | 0.00 | 0.00 | 0.00 | 81 | 1013.0 |
| 20260506023858 | 60 | 344 | 0.0 | 1.7 | 0.00 | 0.00 | 0.00 | 80 | 1013.0 |
| 20260506023359 | 61 | 0 | 0.0 | 0.0 | 0.00 | 0.00 | 0.00 | 79 | 1013.0 |
| 20260506022858 | 61 | 0 | 0.0 | 0.0 | 0.00 | 0.00 | 0.00 | 79 | 1013.0 |
| 20260506022358 | 62 | 168 | 1.7 | 3.5 | 0.00 | 0.00 | 0.00 | 78 | 1013.0 |
| 20260506021858 | 63 | 183 | 1.7 | 2.6 | 0.00 | 0.00 | 0.00 | 76 | 1013.0 |
| 20260506021358 | 63 | 170 | 0.9 | 1.7 | 0.00 | 0.00 | 0.00 | 76 | 1013.0 |
| 20260506020858 | 64 | 165 | 2.6 | 2.6 | 0.00 | 0.00 | 0.00 | 76 | 1013.0 |
| 20260506020358 | 65 | 168 | 2.6 | 3.5 | 0.00 | 0.00 | 0.00 | 74 | 1013.0 |
| 20260506015858 | 66 | 162 | 1.7 | 1.7 | 0.00 | 0.00 | 0.00 | 72 | 1013.0 |
| 20260506015358 | 67 | 157 | 0.0 | 0.9 | 0.00 | 0.00 | 0.00 | 71 | 1013.0 |
| 20260506014858 | 67 | 0 | 0.0 | 0.0 | 0.00 | 0.00 | 0.00 | 69 | 1013.0 |
| 20260506014359 | 67 | 158 | 1.7 | 2.6 | 0.00 | 0.00 | 0.00 | 70 | 1013.0 |
| 20260506013858 | 67 | 158 | 2.6 | 3.5 | 0.00 | 0.00 | 0.00 | 69 | 1013.0 |
| 20260506013358 | 68 | 166 | 2.6 | 2.6 | 0.00 | 0.00 | 0.00 | 65 | 1013.0 |
| 20260506012858 | 67 | 155 | 0.9 | 1.7 | 0.00 | 0.00 | 0.00 | 67 | 1013.0 |
| 20260506012400 | 67 | 167 | 1.7 | 3.5 | 0.00 | 0.00 | 0.00 | 68 | 1013.0 |
| 20260506011858 | 66 | 157 | 0.9 | 1.7 | 0.00 | 0.00 | 0.00 | 69 | 1013.0 |
| 20260506011358 | 66 | 137 | 0.9 | 1.7 | 0.00 | 0.00 | 0.00 | 70 | 1013.0 |
| 20260506010858 | 66 | 166 | 1.7 | 2.6 | 0.00 | 0.00 | 0.00 | 70 | 1013.0 |
| 20260506010358 | 65 | 143 | 0.9 | 1.7 | 0.00 | 0.00 | 0.00 | 70 | 1013.0 |
| 20260506005858 | 66 | 150 | 0.9 | 1.7 | 0.00 | 0.00 | 0.00 | 70 | 1013.0 |
| 20260506005358 | 66 | 160 | 2.6 | 3.5 | 0.00 | 0.00 | 0.00 | 70 | 1013.0 |
| 20260506004859 | 66 | 126 | 0.9 | 2.6 | 0.00 | 0.00 | 0.00 | 70 | 1013.0 |
| 20260506004358 | 66 | 160 | 1.7 | 1.7 | 0.00 | 0.00 | 0.00 | 70 | 1013.0 |
| 20260506003858 | 67 | 174 | 2.6 | 3.5 | 0.00 | 0.00 | 0.00 | 68 | 1013.0 |
| 20260506003358 | 67 | 146 | 1.7 | 1.7 | 0.00 | 0.00 | 0.00 | 68 | 1013.0 |
| 20260506002859 | 67 | 153 | 1.7 | 2.6 | 0.00 | 0.00 | 0.00 | 67 | 1013.0 |
| 20260506002359 | 67 | 155 | 2.6 | 4.3 | 0.00 | 0.00 | 0.00 | 67 | 1013.0 |
| 20260506001858 | 67 | 178 | 2.6 | 4.3 | 0.00 | 0.00 | 0.00 | 67 | 1013.0 |
| 20260506001358 | 66 | 133 | 2.6 | 4.3 | 0.00 | 0.00 | 0.00 | 68 | 1013.0 |
| 20260506000858 | 65 | 123 | 2.6 | 3.5 | 0.00 | 0.00 | 0.00 | 69 | 1013.0 |
| 20260506000358 | 66 | 123 | 2.6 | 5.2 | 0.00 | 0.00 | 0.00 | 69 | 1013.0 |
| 20260505235859 | 66 | 128 | 1.7 | 4.3 | 0.00 | 0.00 | 0.00 | 69 | 1013.0 |
| 20260505235358 | 65 | 150 | 1.7 | 3.5 | 0.00 | 0.00 | 0.00 | 70 | 1013.0 |
| 20260505234858 | 66 | 124 | 3.5 | 6.1 | 0.00 | 0.00 | 0.00 | 70 | 1013.0 |
| 20260505234402 | 66 | 155 | 2.6 | 3.5 | 0.00 | 0.00 | 0.00 | 69 | 1013.0 |
| 20260505233859 | 66 | 158 | 1.7 | 2.6 | 0.00 | 0.00 | 0.00 | 69 | 1013.0 |
| 20260505233400 | 67 | 155 | 1.7 | 2.6 | 0.00 | 0.00 | 0.00 | 68 | 1012.0 |
| 20260505232858 | 67 | 159 | 2.6 | 3.5 | 0.00 | 0.00 | 0.00 | 68 | 1013.0 |
| 20260505232358 | 66 | 127 | 2.6 | 5.2 | 0.00 | 0.00 | 0.00 | 68 | 1012.0 |
| 20260505231859 | 66 | 129 | 3.5 | 5.2 | 0.00 | 0.00 | 0.00 | 68 | 1012.0 |
| 20260505231358 | 67 | 123 | 4.3 | 6.1 | 0.00 | 0.00 | 0.00 | 68 | 1013.0 |
| 20260505230858 | 67 | 130 | 3.5 | 4.3 | 0.00 | 0.00 | 0.00 | 67 | 1013.0 |
| 20260505230400 | 68 | 132 | 2.6 | 4.3 | 0.00 | 0.00 | 0.00 | 65 | 1013.0 |
| 20260505225858 | 68 | 171 | 1.7 | 2.6 | 0.00 | 0.00 | 0.00 | 66 | 1013.0 |
| 20260505225359 | 68 | 168 | 2.6 | 2.6 | 0.00 | 0.00 | 0.00 | 65 | 1013.0 |
| 20260505224858 | 69 | 159 | 2.6 | 3.5 | 0.00 | 0.00 | 0.00 | 64 | 1013.0 |